Weather Roundup
Issued by NWS

Home | Current Version | Previous Version | Graphics & Text | Print | Product List | Glossary Off
Versions: 1 2 3 4 5 6 7 8 9 10 11 12 13 14 15 16 17 18 19 20 21 22 23 24 25 26 27 28 29 30 31 32 33 34 35 36 37 38 39 40 41 42 43 44 45 46 47 48 49 50

000
NZUS93 KARX 290659
HRRWXR

CURRENT HOURLY OBSERVATIONS ACROSS
MUCH OF THE UPPER MISSISSIPPI VALLEY
NATIONAL WEATHER SERVICE LA CROSSE WI
200 AM CDT SAT AUG 29 2015


...SOUTHEAST MINNESOTA...


CITY           SKY/WX    TMP DP  RH WIND       PRES   REMARKS
ROCHESTER      CLOUDY    58  56  93 NE8       30.02S
ROCHESTER/MAYO CLOUDY    57  57 100 CALM      30.02S
WINONA         CLOUDY    59  55  88 E5        30.02S
AUSTIN         CLOUDY    61  57  88 NE6       30.00R
ALBERT LEA     CLOUDY    59  57  94 NE8       30.00S FOG
DODGE CENTER   CLOUDY    55  55 100 NE6       30.02S FOG
PRESTON        CLOUDY    57  56  95 NE5       30.01S FOG
OWATONNA       CLOUDY    57  55  94 NE5       30.02S
FARIBAULT      CLOUDY    55  55 100 CALM      30.03S FOG
$$

...ELSEWHERE IN MINNESOTA...


CITY           SKY/WX    TMP DP  RH WIND       PRES   REMARKS
MINNEAPOLIS    CLEAR     59  55  87 E7        30.03F
INTNL FALLS    CLOUDY    68  64  87 CALM      29.93S
DULUTH         PTCLDY    60  56  86 SW6       30.03R
RED WING       CLEAR     57  54  88 E7        30.02F
REDWOOD FALLS  FOG       55  54  96 CALM      30.02S VSB 3/4
MANKATO        PTCLDY    55  52  88 CALM      30.02F
WORTHINGTON    CLEAR     55  52  88 N5        30.03S
FAIRMONT       CLOUDY    57  52  82 N8        30.01S
$$

...SOUTHWEST WISCONSIN...


CITY           SKY/WX    TMP DP  RH WIND       PRES   REMARKS
LA CROSSE      CLOUDY    61  58  90 NE5       30.01S
PRAIRIE DU CHI RAIN      63  61  95 E8        29.96F
BOSCOBEL       LGT RAIN  63  62  97 NE5       29.98F FOG
LONE ROCK      LGT RAIN  62  60  93 NE10      30.00F FOG
PLATTEVILLE    CLOUDY    64  64  98 SE8       29.97F
FORT MC COY    CLOUDY    58  56  94 E7        30.04S
VIROQUA        CLOUDY    58  58 100 E9        30.01S
WIS DELLS      DRIZZLE   56  55  94 CALM      30.05S
$$

...ELSEWHERE IN WISCONSIN...


CITY           SKY/WX    TMP DP  RH WIND       PRES   REMARKS
MILWAUKEE      LGT RAIN  63  62  97 SE9       30.06F FOG
MADISON        HVY RAIN  60  59  96 E7        30.03F FOG
GREEN BAY      CLOUDY    58  56  93 S3        30.11S
EAU CLAIRE     NOT AVBL
BLACK RVR FLS  CLOUDY    57  57 100 NE5       30.05R
MEDFORD        CLEAR     53  53 100 CALM      30.08F
WAUSAU         CLOUDY    58  55  90 E3        30.09R
WIS RAPIDS     LGT RAIN  58  55  90 SE5       30.08S
MARSHFIELD     CLOUDY    58  53  84 E6        30.08S
RICE LAKE      CLEAR     55  53  94 SE5       30.06F
$$

...NORTHEAST IOWA...


CITY           SKY/WX    TMP DP  RH WIND       PRES   REMARKS
DECORAH        CLOUDY    61  61 100 E12       29.96S
MASON CITY     CLOUDY    60  59  96 N7        29.99R
CHARLES CITY   CLOUDY    61  61 100 NE7       29.96S FOG
OELWEIN        CLOUDY    64  64 100 E3        29.94F FOG
$$

...ELSEWHERE IN IOWA...


CITY           SKY/WX    TMP DP  RH WIND       PRES   REMARKS
DES MOINES     FOG       69  66  90 W8        29.90S VSB 1/4
IOWA CITY      CLOUDY    66  66 100 SE7       29.94F
FORT DODGE     CLOUDY    61  57  88 N6        29.97F
$$

...NORTHERN ILLINOIS...


CITY           SKY/WX    TMP DP  RH WIND       PRES   REMARKS
CHICAGO-OHARE  CLOUDY    68  63  84 SE5       30.06F
CHICAGO-MIDWAY CLOUDY    70  58  65 SE7       30.06F
MOLINE         CLOUDY    66  62  87 E9        29.97F
ROCKFORD       LGT RAIN  65  62  90 SE10      30.05F
PEORIA         LGT RAIN  69  61  75 SE3       30.03F
$$

NOTE: "FAIR" INDICATES FEW OR NO CLOUDS BELOW 12,000 FEET WITH NO
SIGNIFICANT WEATHER AND/OR OBSTRUCTIONS TO VISIBILITY. WIND
SPEEDS ARE IN MILES-PER-HOUR.



USA.gov is the U.S. government's official web portal to all federal, state and local government web resources and services.